Location: Godzisko
(49.9648°N, 19.4576°E)
Time: 07:45:26
(UTC+00:00)

Cosmos 372 Rocket - Pass Details

Date: 20 April 2021
Orbit: 739 x 767 km, 74.1° (Epoch: 05 May)

Event Time Altitude Azimuth Distance (km) Brightness Sun altitude
Exits shadow 02:26:59 12° 210° (SSW) 2,135 5.8 -11.2°
Maximum altitude 02:31:47 74° 295° (WNW) 779 4.0 -10.6°
Drops below altitude 10° 02:36:54 10° 21° (NNE) 2,264 7.3 -9.9°
Sets 02:39:16 0° 23° (NNE) 3,189 8.2 -9.6°
